STARLINK-35143

Last updated on Thu Oct 02 2025 00:02:05 GMT+0000 (Coordinated Universal Time)

1 65485U 25195AD 25274.40770375 .00057424 00000+0 10321-2 0 9993 2 65485 53.1596 280.3712 0001751 59.9992 300.1191 15.49330998 5550

Satellite not in orbit

STARLINK-35143